Time,TemperatureF,DewpointF,PressureIn,WindDirection,WindDirectionDegrees,WindSpeedMPH,WindSpeedGustMPH,Humidity,HourlyPrecipIn,Conditions,Clouds,dailyrainin,SoftwareType,DateUTC
2013-08-11 00:01:00,74.0,70.0,30.08,NW,315,0.0,0.0,87,0.00,,,0.00,,2013-08-11 04:01:00,
2013-08-11 00:12:00,74.0,70.0,30.08,NW,315,0.0,0.0,87,0.00,,,0.00,,2013-08-11 04:12:00,
2013-08-11 00:22:00,74.0,70.0,30.08,NW,315,0.0,0.0,87,0.00,,,0.00,,2013-08-11 04:22:00,
2013-08-11 00:32:00,74.0,70.0,30.08,NW,315,0.0,0.0,87,0.00,,,0.00,,2013-08-11 04:32:00,
2013-08-11 00:43:00,74.0,70.0,30.07,NW,315,0.0,0.0,87,0.00,,,0.00,,2013-08-11 04:43:00,
2013-08-11 00:53:00,74.0,70.0,30.08,NW,315,0.0,0.0,88,0.00,,,0.00,,2013-08-11 04:53:00,
2013-08-11 01:02:00,74.0,70.0,30.08,NW,315,0.0,0.0,88,0.00,,,0.00,,2013-08-11 05:02:00,
2013-08-11 01:25:00,73.0,70.0,30.09,NW,315,0.0,0.0,89,0.00,,,0.00,,2013-08-11 05:25:00,
2013-08-11 01:36:00,73.0,70.0,30.08,NW,315,0.0,0.0,89,0.00,,,0.00,,2013-08-11 05:36:00,
2013-08-11 01:46:00,73.0,70.0,30.08,NW,315,0.0,0.0,89,0.00,,,0.00,,2013-08-11 05:46:00,
2013-08-11 01:54:00,73.0,70.0,30.08,NW,315,0.0,0.0,89,0.00,,,0.00,,2013-08-11 05:54:00,
2013-08-11 02:04:00,73.0,70.0,30.07,NW,315,0.0,0.0,89,0.00,,,0.00,,2013-08-11 06:04:00,
2013-08-11 02:17:00,73.0,70.0,30.08,NW,315,0.0,0.0,89,0.00,,,0.00,,2013-08-11 06:17:00,
2013-08-11 02:26:00,73.0,70.0,30.07,NW,315,0.0,0.0,89,0.00,,,0.00,,2013-08-11 06:26:00,
2013-08-11 02:48:00,73.0,70.0,30.07,NW,315,0.0,0.0,89,0.00,,,0.00,,2013-08-11 06:48:00,
2013-08-11 02:55:00,73.0,70.0,30.07,NW,315,0.0,0.0,89,0.00,,,0.00,,2013-08-11 06:55:00,
2013-08-11 03:06:00,73.0,70.0,30.08,NW,315,0.0,0.0,89,0.00,,,0.00,,2013-08-11 07:06:00,
2013-08-11 03:15:00,73.0,70.0,30.07,NW,315,0.0,0.0,89,0.00,,,0.00,,2013-08-11 07:15:00,
2013-08-11 03:24:00,73.0,70.0,30.08,NW,315,0.0,0.0,89,0.00,,,0.00,,2013-08-11 07:24:00,
2013-08-11 03:36:00,73.0,70.0,30.07,NW,315,0.0,0.0,89,0.00,,,0.00,,2013-08-11 07:36:00,
2013-08-11 03:45:00,73.0,70.0,30.07,NW,315,0.0,0.0,89,0.00,,,0.00,,2013-08-11 07:45:00,
2013-08-11 03:54:00,73.0,70.0,30.07,NW,315,0.0,0.0,90,0.00,,,0.00,,2013-08-11 07:54:00,
2013-08-11 04:10:00,73.0,70.0,30.07,NW,315,0.0,0.0,90,0.00,,,0.00,,2013-08-11 08:10:00,
2013-08-11 04:18:00,73.0,70.0,30.06,NW,315,0.0,0.0,90,0.00,,,0.00,,2013-08-11 08:18:00,
2013-08-11 04:26:00,73.0,70.0,30.07,NW,315,0.0,0.0,90,0.00,,,0.00,,2013-08-11 08:26:00,
2013-08-11 04:35:00,73.0,70.0,30.07,NW,315,0.0,0.0,90,0.00,,,0.00,,2013-08-11 08:35:00,
2013-08-11 04:47:00,73.0,70.0,30.07,NW,315,0.0,0.0,90,0.00,,,0.00,,2013-08-11 08:47:00,
2013-08-11 04:57:00,73.0,70.0,30.07,NW,315,0.0,0.0,90,0.00,,,0.00,,2013-08-11 08:57:00,
2013-08-11 05:08:00,73.0,70.0,30.07,NW,315,0.0,0.0,90,0.00,,,0.00,,2013-08-11 09:08:00,
2013-08-11 05:35:00,73.0,70.0,30.06,NW,315,0.0,0.0,91,0.00,,,0.00,,2013-08-11 09:35:00,
2013-08-11 05:43:00,73.0,70.0,30.06,NW,315,0.0,0.0,91,0.00,,,0.00,,2013-08-11 09:43:00,
2013-08-11 06:05:00,73.0,70.0,30.07,NW,315,0.0,0.0,91,0.00,,,0.00,,2013-08-11 10:05:00,
2013-08-11 06:15:00,73.0,70.0,30.08,NW,315,0.0,0.0,91,0.00,,,0.00,,2013-08-11 10:15:00,
2013-08-11 06:28:00,73.0,70.0,30.07,NW,315,0.0,0.0,91,0.00,,,0.00,,2013-08-11 10:28:00,
2013-08-11 06:35:00,72.0,69.0,30.07,NW,315,0.0,0.0,91,0.00,,,0.00,,2013-08-11 10:35:00,
2013-08-11 06:46:00,72.0,69.0,30.07,NW,315,0.0,0.0,91,0.00,,,0.00,,2013-08-11 10:46:00,
2013-08-11 06:55:00,72.0,69.0,30.08,NW,315,0.0,0.0,91,0.00,,,0.00,,2013-08-11 10:55:00,
2013-08-11 07:06:00,72.0,69.0,30.08,NW,315,0.0,0.0,91,0.00,,,0.00,,2013-08-11 11:06:00,
2013-08-11 07:15:00,72.0,69.0,30.08,NW,315,0.0,0.0,91,0.00,,,0.00,,2013-08-11 11:15:00,
2013-08-11 07:24:00,72.0,70.0,30.08,NW,315,0.0,0.0,92,0.00,,,0.00,,2013-08-11 11:24:00,
2013-08-11 07:37:00,72.0,69.0,30.08,NW,315,0.0,0.0,91,0.00,,,0.00,,2013-08-11 11:37:00,
2013-08-11 07:47:00,72.0,70.0,30.08,NW,315,0.0,0.0,92,0.00,,,0.00,,2013-08-11 11:47:00,
2013-08-11 07:56:00,72.0,70.0,30.08,NW,315,0.0,0.0,92,0.00,,,0.00,,2013-08-11 11:56:00,
2013-08-11 08:06:00,72.0,69.0,30.08,NW,315,0.0,0.0,91,0.00,,,0.00,,2013-08-11 12:06:00,
2013-08-11 08:15:00,72.0,70.0,30.08,NW,315,0.0,0.0,92,0.00,,,0.00,,2013-08-11 12:15:00,
2013-08-11 08:36:00,73.0,71.0,30.09,NW,315,0.0,0.0,92,0.00,,,0.00,,2013-08-11 12:36:00,
2013-08-11 08:45:00,73.0,71.0,30.09,NW,315,0.0,0.0,92,0.00,,,0.00,,2013-08-11 12:45:00,
2013-08-11 08:54:00,73.0,71.0,30.09,NW,315,0.0,0.0,92,0.00,,,0.00,,2013-08-11 12:54:00,
2013-08-11 09:16:00,73.0,71.0,30.09,NW,315,0.0,1.0,92,0.00,,,0.00,,2013-08-11 13:16:00,
2013-08-11 09:25:00,74.0,72.0,30.09,NW,315,0.0,2.0,92,0.00,,,0.00,,2013-08-11 13:25:00,
2013-08-11 09:39:00,74.0,72.0,30.09,NW,315,1.0,2.0,93,0.00,,,0.00,,2013-08-11 13:39:00,
2013-08-11 09:45:00,74.0,72.0,30.09,NW,315,0.0,2.0,93,0.00,,,0.00,,2013-08-11 13:45:00,
2013-08-11 09:55:00,74.0,72.0,30.09,NW,315,0.0,1.0,92,0.00,,,0.00,,2013-08-11 13:55:00,
2013-08-11 10:05:00,75.0,73.0,30.09,NW,315,0.0,0.0,92,0.00,,,0.00,,2013-08-11 14:05:00,
2013-08-11 10:24:00,75.0,72.0,30.09,NW,315,0.0,0.0,91,0.00,,,0.00,,2013-08-11 14:24:00,
2013-08-11 10:34:00,75.0,72.0,30.09,NW,315,0.0,0.0,91,0.00,,,0.00,,2013-08-11 14:34:00,
2013-08-11 10:56:00,76.0,73.0,30.10,NW,315,0.0,0.0,90,0.00,,,0.00,,2013-08-11 14:56:00,
2013-08-11 11:08:00,76.0,73.0,30.10,NW,315,0.0,0.0,90,0.00,,,0.00,,2013-08-11 15:08:00,
2013-08-11 11:14:00,76.0,73.0,30.09,NW,315,0.0,2.0,89,0.00,,,0.00,,2013-08-11 15:14:00,
2013-08-11 11:24:00,76.0,73.0,30.10,NW,315,0.0,3.0,89,0.00,,,0.00,,2013-08-11 15:24:00,
2013-08-11 11:38:00,77.0,73.0,30.10,NW,314,0.0,4.0,88,0.00,,,0.00,,2013-08-11 15:38:00,
2013-08-11 11:57:00,77.0,73.0,30.09,NW,315,2.0,5.0,87,0.00,,,0.00,,2013-08-11 15:57:00,
2013-08-11 12:14:00,78.0,72.0,30.09,NW,314,2.0,5.0,83,0.00,,,0.00,,2013-08-11 16:14:00,
2013-08-11 12:28:00,78.0,72.0,30.09,NW,312,2.0,5.0,82,0.00,,,0.00,,2013-08-11 16:28:00,
2013-08-11 12:39:00,78.0,72.0,30.09,NW,312,1.0,3.0,81,0.00,,,0.00,,2013-08-11 16:39:00,
2013-08-11 12:46:00,79.0,73.0,30.08,NW,308,4.0,5.0,83,0.00,,,0.00,,2013-08-11 16:46:00,
2013-08-11 12:55:00,79.0,73.0,30.08,NW,308,2.0,3.0,82,0.00,,,0.00,,2013-08-11 16:55:00,
2013-08-11 13:08:00,79.0,71.0,30.08,WNW,292,3.0,8.0,77,0.00,,,0.00,,2013-08-11 17:08:00,
2013-08-11 13:14:00,80.0,72.0,30.07,WNW,291,2.0,5.0,78,0.00,,,0.00,,2013-08-11 17:14:00,
2013-08-11 13:25:00,80.0,72.0,30.07,NNW,333,3.0,9.0,76,0.00,,,0.00,,2013-08-11 17:25:00,
2013-08-11 13:36:00,80.0,72.0,30.07,NNW,331,2.0,5.0,76,0.00,,,0.00,,2013-08-11 17:36:00,
2013-08-11 13:45:00,81.0,73.0,30.06,NNW,335,3.0,7.0,76,0.00,,,0.00,,2013-08-11 17:45:00,
2013-08-11 14:06:00,81.0,72.0,30.06,WNW,297,2.0,7.0,74,0.00,,,0.00,,2013-08-11 18:06:00,
2013-08-11 14:17:00,81.0,72.0,30.06,West,273,3.0,8.0,74,0.00,,,0.00,,2013-08-11 18:17:00,
2013-08-11 14:28:00,82.0,72.0,30.06,North,353,0.0,8.0,73,0.00,,,0.00,,2013-08-11 18:28:00,
2013-08-11 14:39:00,82.0,72.0,30.06,North,359,3.0,6.0,73,0.00,,,0.00,,2013-08-11 18:39:00,
2013-08-11 14:47:00,82.0,72.0,30.06,NW,313,2.0,7.0,72,0.00,,,0.00,,2013-08-11 18:47:00,
2013-08-11 14:54:00,82.0,72.0,30.05,NW,310,2.0,5.0,73,0.00,,,0.00,,2013-08-11 18:54:00,
2013-08-11 15:09:00,82.0,72.0,30.06,NNW,337,2.0,7.0,71,0.00,,,0.00,,2013-08-11 19:09:00,
2013-08-11 15:16:00,82.0,71.0,30.05,NW,319,3.0,7.0,70,0.00,,,0.00,,2013-08-11 19:16:00,
2013-08-11 15:26:00,83.0,71.0,30.06,WNW,283,4.0,10.0,67,0.00,,,0.00,,2013-08-11 19:26:00,
2013-08-11 15:50:00,84.0,71.0,30.05,WNW,286,4.0,8.0,66,0.00,,,0.00,,2013-08-11 19:50:00,
2013-08-11 15:56:00,84.0,71.0,30.05,West,275,2.0,8.0,66,0.00,,,0.00,,2013-08-11 19:56:00,
2013-08-11 16:07:00,84.0,72.0,30.05,West,276,2.0,7.0,67,0.00,,,0.00,,2013-08-11 20:07:00,
2013-08-11 16:28:00,84.0,71.0,30.05,West,270,2.0,7.0,65,0.00,,,0.00,,2013-08-11 20:28:00,
2013-08-11 16:38:00,84.0,71.0,30.05,West,262,2.0,7.0,66,0.00,,,0.00,,2013-08-11 20:38:00,
2013-08-11 16:47:00,84.0,71.0,30.04,West,265,2.0,8.0,65,0.00,,,0.00,,2013-08-11 20:47:00,
2013-08-11 16:55:00,85.0,72.0,30.04,West,274,4.0,6.0,66,0.00,,,0.00,,2013-08-11 20:55:00,
2013-08-11 17:07:00,85.0,72.0,30.04,WSW,256,2.0,8.0,66,0.00,,,0.00,,2013-08-11 21:07:00,
2013-08-11 17:13:00,85.0,72.0,30.04,West,260,2.0,7.0,66,0.00,,,0.00,,2013-08-11 21:13:00,
2013-08-11 17:27:00,84.0,72.0,30.03,WNW,298,2.0,6.0,67,0.00,,,0.00,,2013-08-11 21:27:00,
2013-08-11 17:34:00,85.0,73.0,30.03,West,262,4.0,7.0,67,0.00,,,0.00,,2013-08-11 21:34:00,
2013-08-11 17:46:00,85.0,72.0,30.03,NW,319,3.0,8.0,66,0.00,,,0.00,,2013-08-11 21:46:00,
2013-08-11 17:54:00,85.0,72.0,30.04,NW,311,4.0,6.0,65,0.00,,,0.00,,2013-08-11 21:54:00,
2013-08-11 18:04:00,84.0,72.0,30.04,West,274,2.0,6.0,67,0.00,,,0.00,,2013-08-11 22:04:00,
2013-08-11 18:16:00,84.0,72.0,30.03,West,272,2.0,8.0,67,0.00,,,0.00,,2013-08-11 22:16:00,
2013-08-11 18:25:00,84.0,71.0,30.04,West,279,3.0,6.0,65,0.00,,,0.00,,2013-08-11 22:25:00,
2013-08-11 18:46:00,84.0,71.0,30.03,NW,313,2.0,8.0,66,0.00,,,0.00,,2013-08-11 22:46:00,
2013-08-11 18:55:00,84.0,72.0,30.03,NW,318,1.0,5.0,67,0.00,,,0.00,,2013-08-11 22:55:00,
2013-08-11 19:05:00,84.0,72.0,30.03,NW,306,1.0,5.0,67,0.00,,,0.00,,2013-08-11 23:05:00,
2013-08-11 19:16:00,84.0,71.0,30.03,NW,315,4.0,7.0,66,0.00,,,0.00,,2013-08-11 23:16:00,
2013-08-11 19:28:00,83.0,71.0,30.03,NW,322,2.0,6.0,67,0.00,,,0.00,,2013-08-11 23:28:00,
2013-08-11 19:35:00,83.0,71.0,30.03,NW,319,2.0,6.0,67,0.00,,,0.00,,2013-08-11 23:35:00,
2013-08-11 19:48:00,83.0,71.0,30.04,NW,323,3.0,6.0,67,0.00,,,0.00,,2013-08-11 23:48:00,
2013-08-11 19:56:00,83.0,70.0,30.04,NW,324,4.0,6.0,66,0.00,,,0.00,,2013-08-11 23:56:00,
2013-08-11 20:06:00,82.0,70.0,30.04,NW,311,4.0,6.0,67,0.00,,,0.00,,2013-08-12 00:06:00,
2013-08-11 20:17:00,82.0,69.0,30.05,NW,312,3.0,6.0,66,0.00,,,0.00,,2013-08-12 00:17:00,
2013-08-11 20:25:00,81.0,69.0,30.05,NW,313,1.0,4.0,67,0.00,,,0.00,,2013-08-12 00:25:00,
2013-08-11 20:37:00,81.0,69.0,30.06,NW,313,1.0,5.0,67,0.00,,,0.00,,2013-08-12 00:37:00,
2013-08-11 20:49:00,81.0,69.0,30.05,NW,313,1.0,3.0,67,0.00,,,0.00,,2013-08-12 00:49:00,
2013-08-11 21:07:00,80.0,69.0,30.06,NW,313,0.0,0.0,70,0.00,,,0.00,,2013-08-12 01:07:00,
2013-08-11 21:14:00,79.0,68.0,30.06,NW,313,0.0,0.0,70,0.00,,,0.00,,2013-08-12 01:14:00,
2013-08-11 21:25:00,78.0,68.0,30.06,NW,313,0.0,0.0,71,0.00,,,0.00,,2013-08-12 01:25:00,
2013-08-11 21:37:00,78.0,69.0,30.07,NW,313,0.0,0.0,73,0.00,,,0.00,,2013-08-12 01:37:00,
2013-08-11 21:55:00,76.0,67.0,30.07,NW,314,0.0,0.0,75,0.00,,,0.00,,2013-08-12 01:55:00,
2013-08-11 22:08:00,76.0,67.0,30.07,NW,313,0.0,0.0,75,0.00,,,0.00,,2013-08-12 02:08:00,
2013-08-11 22:15:00,75.0,67.0,30.08,NW,313,0.0,0.0,77,0.00,,,0.00,,2013-08-12 02:15:00,
2013-08-11 22:36:00,74.0,67.0,30.08,NW,313,0.0,0.0,78,0.00,,,0.00,,2013-08-12 02:36:00,
2013-08-11 22:55:00,74.0,67.0,30.09,NW,313,0.0,0.0,80,0.00,,,0.00,,2013-08-12 02:55:00,
2013-08-11 23:15:00,73.0,67.0,30.09,NW,313,0.0,0.0,81,0.00,,,0.00,,2013-08-12 03:15:00,
2013-08-11 23:25:00,73.0,67.0,30.08,NW,314,0.0,0.0,81,0.00,,,0.00,,2013-08-12 03:25:00,
2013-08-11 23:39:00,72.0,66.0,30.08,NW,314,0.0,0.0,81,0.00,,,0.00,,2013-08-12 03:39:00,
2013-08-11 23:46:00,72.0,66.0,30.08,NW,314,0.0,0.0,81,0.00,,,0.00,,2013-08-12 03:46:00,
2013-08-11 23:57:00,72.0,66.0,30.08,NW,314,0.0,0.0,82,0.00,,,0.00,,2013-08-12 03:57:00,